TimeMST,TemperatureF,Dew PointF,Humidity,Sea Level PressureIn,VisibilityMPH,Wind Direction,Wind SpeedMPH,Gust SpeedMPH,PrecipitationIn,Events,Conditions,WindDirDegrees,DateUTC
12:00 AM,33.3,27.5,79,30.19,-9999.0,SW,8.1,-,N/A,,Unknown,230,2013-11-13 07:00:00
1:00 AM,33.1,27.3,79,30.19,-9999.0,SW,5.8,-,N/A,,Unknown,230,2013-11-13 08:00:00
2:00 AM,32.9,27.5,81,30.17,-9999.0,SW,6.9,-,N/A,,Unknown,230,2013-11-13 09:00:00
3:00 AM,31.8,27.7,85,30.17,-9999.0,SW,8.1,-,N/A,,Unknown,230,2013-11-13 10:00:00
4:00 AM,33.3,27.7,80,30.14,-9999.0,SW,5.8,-,N/A,,Unknown,230,2013-11-13 11:00:00
5:00 AM,32.9,27.7,81,30.12,-9999.0,SW,10.4,18.4,N/A,,Unknown,230,2013-11-13 12:00:00
6:00 AM,34.2,27.9,78,30.11,-9999.0,WSW,5.8,-,N/A,,Unknown,240,2013-11-13 13:00:00
7:00 AM,34.7,27.3,74,30.09,-9999.0,SW,6.9,-,N/A,,Unknown,230,2013-11-13 14:00:00
8:00 AM,31.5,27.7,86,30.12,-9999.0,SW,10.4,18.4,N/A,,Unknown,230,2013-11-13 15:00:00
9:00 AM,34.7,29.3,81,30.13,-9999.0,SW,6.9,-,N/A,,Unknown,220,2013-11-13 16:00:00
10:00 AM,37.2,29.1,73,30.12,-9999.0,SW,9.2,18.4,N/A,,Unknown,230,2013-11-13 17:00:00
11:00 AM,38.3,28.4,68,30.13,-9999.0,WSW,8.1,-,N/A,,Unknown,240,2013-11-13 18:00:00
12:00 PM,39.6,29.7,68,30.12,-9999.0,SW,10.4,-,N/A,,Unknown,230,2013-11-13 19:00:00
1:00 PM,40.3,29.5,65,30.11,-9999.0,WSW,8.1,-,N/A,,Unknown,240,2013-11-13 20:00:00
2:00 PM,40.6,28.0,61,30.13,-9999.0,WSW,6.9,-,N/A,,Unknown,250,2013-11-13 21:00:00
3:00 PM,41.0,26.8,57,30.12,-9999.0,West,5.8,-,N/A,,Unknown,270,2013-11-13 22:00:00
4:00 PM,41.0,25.9,55,30.11,-9999.0,West,6.9,-,N/A,,Unknown,260,2013-11-13 23:00:00
5:00 PM,40.5,25.5,55,30.11,-9999.0,WSW,8.1,18.4,N/A,,Unknown,240,2013-11-14 00:00:00
6:00 PM,40.1,25.2,55,30.10,-9999.0,West,6.9,-,N/A,,Unknown,260,2013-11-14 01:00:00
7:00 PM,40.1,25.3,56,30.13,-9999.0,West,5.8,-,N/A,,Unknown,260,2013-11-14 02:00:00
8:00 PM,38.7,25.3,59,30.10,-9999.0,WSW,3.5,-,N/A,,Unknown,250,2013-11-14 03:00:00
9:00 PM,39.9,23.7,52,30.07,-9999.0,West,5.8,-,N/A,,Unknown,270,2013-11-14 04:00:00
10:00 PM,37.8,25.3,61,30.07,-9999.0,WSW,4.6,-,N/A,,Unknown,250,2013-11-14 05:00:00
11:00 PM,35.8,28.0,73,30.08,-9999.0,WSW,5.8,-,N/A,,Unknown,240,2013-11-14 06:00:00